EZY52GC LFMT-EGCC

Flight info

Callsign EZY52GC
Flight time 1h 47m
Altitude 38000
Route ETREK DCT MADOT DCT MOPEM DCT CACHI DCT AVLON DCT OKRIX DCT BRY DCT CLM DCT KOPOR DCT VESAN DCT RATUK DCT SOVAT L613 SANDY UN57 WELIN T420 ELVOS
Aircraft A319/M-SDE2E3FGIJ1RWXYZ/LB1

Departure

Time 2026-05-07 09:32
Airport Montpellier-Méditerranée Airport (LFMT)

Arrival

Time 2026-05-07 11:20
Airport Manchester Airport (EGCC)
Time Latitude Longitude Altitude Speed Heading
2026-05-07 09:23 43.57960 3.95980 22 ft 0 kts 255°
2026-05-07 09:24 43.57962 3.95990 22 ft 4 kts 253°
2026-05-07 09:24 43.57972 3.96024 22 ft 4 kts 242°
2026-05-07 09:24 43.57985 3.96056 25 ft 4 kts 237°
2026-05-07 09:25 43.57998 3.96088 26 ft 3 kts 253°
2026-05-07 09:25 43.58000 3.96097 26 ft 0 kts 254°
2026-05-07 09:28 43.57999 3.96092 26 ft 1 kts 254°
2026-05-07 09:28 43.58004 3.96056 23 ft 6 kts 297°
2026-05-07 09:28 43.58030 3.96002 23 ft 7 kts 301°
2026-05-07 09:29 43.58054 3.95928 24 ft 10 kts 292°
2026-05-07 09:29 43.58098 3.95832 23 ft 12 kts 305°
2026-05-07 09:29 43.58160 3.95762 25 ft 12 kts 357°
2026-05-07 09:29 43.58228 3.95821 24 ft 12 kts 33°
2026-05-07 09:30 43.58298 3.95794 24 ft 12 kts 308°
2026-05-07 09:30 43.58343 3.95701 25 ft 12 kts 304°
2026-05-07 09:30 43.58388 3.95611 25 ft 12 kts 305°
2026-05-07 09:30 43.58439 3.95519 25 ft 12 kts 320°
2026-05-07 09:31 43.58518 3.95506 26 ft 12 kts 21°
2026-05-07 09:31 43.58583 3.95571 25 ft 9 kts 39°
2026-05-07 09:31 43.58597 3.95605 25 ft 4 kts 95°
2026-05-07 09:31 43.58577 3.95643 26 ft 8 kts 127°
2026-05-07 09:32 43.58463 3.95868 23 ft 65 kts 125°
2026-05-07 09:32 43.58067 3.96656 27 ft 133 kts 124°
2026-05-07 09:32 43.57470 3.97843 361 ft 155 kts 126°
2026-05-07 09:32 43.56929 3.99130 1046 ft 157 kts 109°
2026-05-07 09:33 43.56717 4.00643 1572 ft 171 kts 89°
2026-05-07 09:33 43.56971 4.02334 1943 ft 193 kts 65°
2026-05-07 09:33 43.57829 4.03893 2322 ft 218 kts 38°
2026-05-07 09:33 43.59262 4.04853 2797 ft 243 kts 18°
2026-05-07 09:34 43.60925 4.05577 3590 ft 255 kts 17°
2026-05-07 09:34 43.62635 4.06313 4630 ft 260 kts 17°
2026-05-07 09:34 43.64380 4.07070 5584 ft 266 kts 17°
2026-05-07 09:34 43.66158 4.07916 6509 ft 274 kts 18°
2026-05-07 09:35 43.67966 4.08826 7380 ft 279 kts 18°
2026-05-07 09:35 43.69804 4.09769 8278 ft 285 kts 19°
2026-05-07 09:35 43.71675 4.10737 9188 ft 290 kts 19°
2026-05-07 09:35 43.73580 4.11720 10073 ft 295 kts 19°
2026-05-07 09:36 43.75569 4.12738 10511 ft 317 kts 19°
2026-05-07 09:36 43.77694 4.13819 11001 ft 332 kts 19°
2026-05-07 09:36 43.79883 4.14938 11764 ft 338 kts 19°
2026-05-07 09:36 43.82103 4.16073 12572 ft 342 kts 19°
2026-05-07 09:37 43.84350 4.17223 13391 ft 346 kts 19°
2026-05-07 09:37 43.86624 4.18387 14149 ft 350 kts 19°
2026-05-07 09:37 43.88922 4.19559 14857 ft 354 kts 19°
2026-05-07 09:37 43.91214 4.20729 15561 ft 358 kts 19°
2026-05-07 09:38 43.93561 4.21929 16261 ft 361 kts 19°
2026-05-07 09:38 43.95930 4.23140 16971 ft 364 kts 19°
2026-05-07 09:38 43.98317 4.24359 17674 ft 368 kts 19°
2026-05-07 09:38 44.00763 4.25609 18366 ft 371 kts 18°
2026-05-07 09:39 44.03224 4.26555 18946 ft 373 kts 11°
2026-05-07 09:39 44.05768 4.27353 19543 ft 377 kts 11°
2026-05-07 09:39 44.08337 4.28164 20151 ft 380 kts 11°
2026-05-07 09:39 44.10925 4.28984 20754 ft 383 kts 11°
2026-05-07 09:40 44.13534 4.29813 21359 ft 386 kts 11°
2026-05-07 09:40 44.16166 4.30650 21980 ft 389 kts 10°
2026-05-07 09:40 44.18817 4.31494 22606 ft 392 kts 10°
2026-05-07 09:40 44.21484 4.32344 23213 ft 395 kts 10°
2026-05-07 09:41 44.24177 4.33204 23766 ft 398 kts 10°
2026-05-07 09:41 44.26888 4.34071 24249 ft 401 kts 10°
2026-05-07 09:41 44.29622 4.34946 24722 ft 405 kts 10°
2026-05-07 09:41 44.32414 4.35838 25196 ft 408 kts
2026-05-07 09:42 44.35156 4.36712 25636 ft 411 kts
2026-05-07 09:42 44.37953 4.37603 26097 ft 414 kts
2026-05-07 09:42 44.40774 4.38504 26534 ft 417 kts
2026-05-07 09:42 44.43618 4.39414 26961 ft 421 kts
2026-05-07 09:43 44.46482 4.40335 27385 ft 424 kts
2026-05-07 09:43 44.49370 4.41265 27790 ft 427 kts
2026-05-07 09:43 44.52275 4.42199 28216 ft 430 kts
2026-05-07 09:43 44.55201 4.43140 28679 ft 433 kts
2026-05-07 09:44 44.58145 4.44090 29108 ft 435 kts
2026-05-07 09:44 44.61105 4.45047 29509 ft 438 kts
2026-05-07 09:44 44.64084 4.46010 29897 ft 441 kts
2026-05-07 09:44 44.67088 4.46981 30225 ft 444 kts
2026-05-07 09:45 44.70110 4.47956 30547 ft 447 kts
2026-05-07 09:45 44.72993 4.48888 30860 ft 449 kts
2026-05-07 09:45 44.76047 4.49884 31173 ft 452 kts
2026-05-07 09:45 44.79120 4.50891 31477 ft 455 kts
2026-05-07 09:46 44.82208 4.51898 31816 ft 456 kts
2026-05-07 09:46 44.85296 4.52900 32249 ft 455 kts
2026-05-07 09:46 44.88378 4.53899 32692 ft 454 kts
2026-05-07 09:46 44.90420 4.54562 32994 ft 454 kts
2026-05-07 09:47 44.93497 4.55566 33438 ft 454 kts
2026-05-07 09:47 44.96572 4.56573 33871 ft 453 kts
2026-05-07 09:47 44.99642 4.57578 34252 ft 453 kts
2026-05-07 09:47 45.02714 4.58583 34582 ft 453 kts
2026-05-07 09:48 45.05786 4.59592 34910 ft 453 kts
2026-05-07 09:48 45.08862 4.60607 35229 ft 453 kts
2026-05-07 09:48 45.11927 4.61618 35560 ft 453 kts
2026-05-07 09:48 45.14998 4.62624 35887 ft 452 kts
2026-05-07 09:49 45.18086 4.63271 36175 ft 446 kts 358°
2026-05-07 09:49 45.21168 4.63238 36438 ft 440 kts 349°
2026-05-07 09:49 45.24183 4.62626 36687 ft 437 kts 346°
2026-05-07 09:49 45.27192 4.61929 36916 ft 439 kts 346°
2026-05-07 09:50 45.30209 4.61241 37177 ft 439 kts 346°
2026-05-07 09:50 45.33226 4.60557 37441 ft 439 kts 346°
2026-05-07 09:50 45.36242 4.59871 37700 ft 439 kts 346°
2026-05-07 09:50 45.39264 4.59181 37922 ft 440 kts 346°
2026-05-07 09:51 45.42288 4.58486 38035 ft 440 kts 346°
2026-05-07 09:51 45.48325 4.57102 38053 ft 439 kts 346°
2026-05-07 09:52 45.54351 4.55720 38051 ft 438 kts 347°
2026-05-07 09:52 45.60367 4.54328 38056 ft 438 kts 346°
2026-05-07 09:53 45.66380 4.52934 38054 ft 438 kts 347°
2026-05-07 09:53 45.72349 4.51551 38067 ft 437 kts 347°
2026-05-07 09:54 45.78393 4.50149 38069 ft 437 kts 347°
2026-05-07 09:54 45.84400 4.48753 38067 ft 437 kts 347°
2026-05-07 09:55 45.90408 4.47344 38085 ft 437 kts 347°
2026-05-07 09:55 45.96410 4.45936 38082 ft 437 kts 347°
2026-05-07 09:56 46.02373 4.44540 38071 ft 437 kts 347°
2026-05-07 09:56 46.08414 4.43127 38078 ft 437 kts 347°
2026-05-07 09:57 46.14376 4.41723 38080 ft 437 kts 347°
2026-05-07 09:57 46.20416 4.40289 38071 ft 437 kts 347°
2026-05-07 09:58 46.26414 4.38864 38070 ft 437 kts 347°
2026-05-07 09:58 46.32375 4.37221 38085 ft 435 kts 343°
2026-05-07 09:59 46.38253 4.35107 38068 ft 435 kts 342°
2026-05-07 09:59 46.44110 4.32907 38065 ft 435 kts 342°
2026-05-07 10:00 46.49955 4.30800 38068 ft 436 kts 343°
2026-05-07 10:00 46.55891 4.28743 38069 ft 436 kts 343°
2026-05-07 10:01 46.61753 4.26700 38070 ft 436 kts 343°
2026-05-07 10:01 46.67638 4.24612 38067 ft 436 kts 343°
2026-05-07 10:02 46.73533 4.22520 38068 ft 436 kts 343°
2026-05-07 10:02 46.79419 4.20422 38067 ft 435 kts 343°
2026-05-07 10:03 46.85306 4.18326 38066 ft 435 kts 343°
2026-05-07 10:03 46.91192 4.16218 38079 ft 435 kts 343°
2026-05-07 10:04 46.97077 4.14117 38074 ft 435 kts 343°
2026-05-07 10:04 47.02958 4.12003 38071 ft 435 kts 343°
2026-05-07 10:05 47.08731 4.09458 38076 ft 432 kts 335°
2026-05-07 10:05 47.14303 4.06161 38077 ft 432 kts 335°
2026-05-07 10:06 47.19880 4.02864 38068 ft 432 kts 335°
2026-05-07 10:06 47.25456 3.99560 38064 ft 432 kts 335°
2026-05-07 10:07 47.31031 3.96248 38068 ft 432 kts 335°
2026-05-07 10:07 47.36611 3.92936 38072 ft 432 kts 335°
2026-05-07 10:08 47.42192 3.89613 38069 ft 433 kts 335°
2026-05-07 10:08 47.47772 3.86274 38070 ft 433 kts 335°
2026-05-07 10:09 47.53347 3.82926 38077 ft 433 kts 335°
2026-05-07 10:09 47.58928 3.79571 38074 ft 433 kts 335°
2026-05-07 10:10 47.64517 3.76215 38064 ft 433 kts 335°
2026-05-07 10:10 47.70098 3.72844 38064 ft 433 kts 335°
2026-05-07 10:11 47.75682 3.69472 38072 ft 433 kts 335°
2026-05-07 10:11 47.81266 3.66091 38067 ft 433 kts 335°
2026-05-07 10:12 47.86844 3.62696 38068 ft 433 kts 335°
2026-05-07 10:12 47.92426 3.59294 38066 ft 433 kts 335°
2026-05-07 10:13 47.98004 3.55889 38075 ft 433 kts 335°
2026-05-07 10:13 48.03546 3.52493 38067 ft 433 kts 335°
2026-05-07 10:14 48.09161 3.49041 38065 ft 433 kts 335°
2026-05-07 10:14 48.14565 3.45713 38064 ft 433 kts 335°
2026-05-07 10:15 48.18572 3.43235 38070 ft 433 kts 335°
2026-05-07 10:15 48.24108 3.39800 38063 ft 434 kts 335°
2026-05-07 10:16 48.29683 3.36339 38062 ft 434 kts 335°
2026-05-07 10:16 48.35260 3.32866 38064 ft 434 kts 335°
2026-05-07 10:17 48.40841 3.29385 38070 ft 434 kts 335°
2026-05-07 10:17 48.46412 3.25872 38066 ft 434 kts 335°
2026-05-07 10:18 48.51970 3.22310 38063 ft 434 kts 335°
2026-05-07 10:18 48.57527 3.18739 38063 ft 434 kts 335°
2026-05-07 10:19 48.63089 3.15173 38068 ft 434 kts 335°
2026-05-07 10:19 48.68651 3.11598 38070 ft 434 kts 335°
2026-05-07 10:20 48.74207 3.08013 38064 ft 434 kts 335°
2026-05-07 10:20 48.79768 3.04423 38071 ft 434 kts 335°
2026-05-07 10:21 48.85279 3.00686 38069 ft 433 kts 328°
2026-05-07 10:21 48.90495 2.96130 38075 ft 432 kts 328°
2026-05-07 10:22 48.95716 2.91562 38078 ft 432 kts 328°
2026-05-07 10:22 49.00927 2.86997 38077 ft 433 kts 328°
2026-05-07 10:23 49.06141 2.82413 38100 ft 432 kts 328°
2026-05-07 10:23 49.11348 2.77825 38099 ft 432 kts 328°
2026-05-07 10:24 49.16555 2.73226 38093 ft 432 kts 328°
2026-05-07 10:24 49.21756 2.68614 38089 ft 432 kts 328°
2026-05-07 10:25 49.26956 2.63997 38094 ft 432 kts 328°
2026-05-07 10:25 49.32150 2.59374 38094 ft 432 kts 328°
2026-05-07 10:26 49.37341 2.54749 38089 ft 432 kts 328°
2026-05-07 10:26 49.42529 2.50111 38087 ft 431 kts 328°
2026-05-07 10:27 49.47716 2.45455 38084 ft 431 kts 328°
2026-05-07 10:27 49.53092 2.41379 38092 ft 434 kts 341°
2026-05-07 10:28 49.58893 2.38753 38087 ft 435 kts 342°
2026-05-07 10:28 49.64696 2.36121 38071 ft 435 kts 342°
2026-05-07 10:29 49.70500 2.33480 38079 ft 435 kts 342°
2026-05-07 10:29 49.76304 2.30826 38084 ft 435 kts 342°
2026-05-07 10:30 49.84032 2.27288 38062 ft 435 kts 342°
2026-05-07 10:30 49.89839 2.24629 38075 ft 435 kts 342°
2026-05-07 10:31 49.95644 2.21952 38083 ft 435 kts 342°
2026-05-07 10:31 50.01454 2.19274 38079 ft 435 kts 342°
2026-05-07 10:32 50.07258 2.16585 38078 ft 435 kts 342°
2026-05-07 10:32 50.13071 2.13886 38073 ft 435 kts 342°
2026-05-07 10:33 50.18871 2.11185 38079 ft 435 kts 342°
2026-05-07 10:33 50.24682 2.08486 38081 ft 436 kts 342°
2026-05-07 10:34 50.30453 2.05794 38076 ft 436 kts 342°
2026-05-07 10:34 50.36175 2.02730 38069 ft 434 kts 332°
2026-05-07 10:35 50.41083 1.97369 38083 ft 430 kts 317°
2026-05-07 10:35 50.45592 1.91193 38071 ft 431 kts 317°
2026-05-07 10:36 50.50123 1.85020 38084 ft 431 kts 317°
2026-05-07 10:36 50.54645 1.78832 38081 ft 431 kts 317°
2026-05-07 10:37 50.59060 1.72778 38079 ft 432 kts 317°
2026-05-07 10:37 50.63581 1.66556 38076 ft 432 kts 317°
2026-05-07 10:38 50.68094 1.60316 38078 ft 432 kts 317°
2026-05-07 10:38 50.72052 1.54824 38078 ft 432 kts 317°
2026-05-07 10:39 50.76566 1.48562 38085 ft 432 kts 317°
2026-05-07 10:39 50.80693 1.42830 38086 ft 432 kts 317°
2026-05-07 10:40 50.84047 1.38152 38087 ft 432 kts 317°
2026-05-07 10:40 50.88558 1.31845 38096 ft 433 kts 317°
2026-05-07 10:41 50.93069 1.25529 38098 ft 433 kts 317°
2026-05-07 10:41 50.97584 1.19209 38102 ft 433 kts 317°
2026-05-07 10:42 51.02090 1.12863 38105 ft 433 kts 317°
2026-05-07 10:42 51.06588 1.06496 38106 ft 433 kts 317°
2026-05-07 10:43 51.10897 1.00025 38102 ft 433 kts 314°
2026-05-07 10:43 51.15165 0.93276 38064 ft 433 kts 314°
2026-05-07 10:44 51.19446 0.86534 38029 ft 433 kts 314°
2026-05-07 10:44 51.23748 0.79822 38001 ft 433 kts 315°
2026-05-07 10:45 51.28016 0.73156 37980 ft 433 kts 314°
2026-05-07 10:45 51.32063 0.66810 37972 ft 433 kts 314°
2026-05-07 10:46 51.34207 0.63438 38092 ft 433 kts 314°
2026-05-07 10:46 51.36354 0.60060 38090 ft 433 kts 314°
2026-05-07 10:46 51.40623 0.53336 38089 ft 434 kts 314°
2026-05-07 10:47 51.44697 0.46903 38093 ft 434 kts 314°
2026-05-07 10:47 51.48965 0.40133 38083 ft 434 kts 314°
2026-05-07 10:48 51.53252 0.33307 38094 ft 435 kts 314°
2026-05-07 10:48 51.57553 0.26463 38102 ft 435 kts 314°
2026-05-07 10:49 51.61535 0.20099 38103 ft 435 kts 314°
2026-05-07 10:49 51.65822 0.13217 38101 ft 435 kts 314°
2026-05-07 10:50 51.70044 0.06309 38097 ft 435 kts 313°
2026-05-07 10:50 51.73142 0.01182 38097 ft 435 kts 313°
2026-05-07 10:51 51.77315 -0.05727 38084 ft 435 kts 313°
2026-05-07 10:51 51.81552 -0.12735 37841 ft 436 kts 313°
2026-05-07 10:52 51.83673 -0.16243 37565 ft 437 kts 313°
2026-05-07 10:52 51.85281 -0.18906 37362 ft 437 kts 313°
2026-05-07 10:52 51.87109 -0.21934 37138 ft 437 kts 313°
2026-05-07 10:52 51.89233 -0.25464 36870 ft 437 kts 313°
2026-05-07 10:53 51.91329 -0.28956 36607 ft 438 kts 313°
2026-05-07 10:53 51.93420 -0.32447 36360 ft 439 kts 314°
2026-05-07 10:53 51.95464 -0.35862 36021 ft 435 kts 314°
2026-05-07 10:53 51.97562 -0.39369 35517 ft 432 kts 314°
2026-05-07 10:54 51.99644 -0.42854 35016 ft 429 kts 314°
2026-05-07 10:54 52.01637 -0.46196 34514 ft 427 kts 314°
2026-05-07 10:54 52.03699 -0.49656 34008 ft 425 kts 314°
2026-05-07 10:54 52.05752 -0.53103 33463 ft 422 kts 315°
2026-05-07 10:55 52.07784 -0.56515 32975 ft 419 kts 315°
2026-05-07 10:55 52.09799 -0.59906 32482 ft 415 kts 315°
2026-05-07 10:55 52.11797 -0.63275 31993 ft 412 kts 315°
2026-05-07 10:55 52.13398 -0.65983 31611 ft 410 kts 315°
2026-05-07 10:56 52.14744 -0.68263 31292 ft 407 kts 315°
2026-05-07 10:56 52.16814 -0.71773 30783 ft 405 kts 315°
2026-05-07 10:56 52.18759 -0.75077 30335 ft 402 kts 315°
2026-05-07 10:56 52.20686 -0.78360 29841 ft 400 kts 314°
2026-05-07 10:57 52.22598 -0.81619 29402 ft 396 kts 314°
2026-05-07 10:57 52.24564 -0.84734 28966 ft 391 kts 321°
2026-05-07 10:57 52.26772 -0.87282 28572 ft 386 kts 330°
2026-05-07 10:57 52.29057 -0.89540 28168 ft 382 kts 330°
2026-05-07 10:58 52.31023 -0.91488 27830 ft 379 kts 329°
2026-05-07 10:58 52.33268 -0.93716 27425 ft 376 kts 329°
2026-05-07 10:58 52.35489 -0.95929 27029 ft 372 kts 329°
2026-05-07 10:58 52.37687 -0.98127 26618 ft 369 kts 329°
2026-05-07 10:59 52.39871 -1.00311 26215 ft 366 kts 329°
2026-05-07 10:59 52.42032 -1.02470 25800 ft 363 kts 329°
2026-05-07 10:59 52.44181 -1.04625 25368 ft 361 kts 328°
2026-05-07 10:59 52.46296 -1.06745 24932 ft 359 kts 328°
2026-05-07 11:00 52.48241 -1.08693 24534 ft 357 kts 328°
2026-05-07 11:00 52.50268 -1.10724 24116 ft 356 kts 328°
2026-05-07 11:00 52.52261 -1.12728 23702 ft 355 kts 328°
2026-05-07 11:00 52.54360 -1.14847 23211 ft 353 kts 327°
2026-05-07 11:01 52.56450 -1.16958 22770 ft 350 kts 327°
2026-05-07 11:01 52.58515 -1.19045 22350 ft 348 kts 327°
2026-05-07 11:01 52.60571 -1.21123 21926 ft 345 kts 327°
2026-05-07 11:01 52.62608 -1.23182 21517 ft 343 kts 327°
2026-05-07 11:02 52.64630 -1.25228 21106 ft 340 kts 327°
2026-05-07 11:02 52.66642 -1.27270 20705 ft 339 kts 327°
2026-05-07 11:02 52.68523 -1.29178 20332 ft 337 kts 327°
2026-05-07 11:02 52.70515 -1.31198 19920 ft 336 kts 327°
2026-05-07 11:03 52.72473 -1.33187 19498 ft 337 kts 327°
2026-05-07 11:03 52.74464 -1.35215 19139 ft 336 kts 327°
2026-05-07 11:03 52.76453 -1.37249 18723 ft 336 kts 326°
2026-05-07 11:03 52.78434 -1.39279 18291 ft 335 kts 326°
2026-05-07 11:04 52.80416 -1.41308 17839 ft 334 kts 326°
2026-05-07 11:04 52.82386 -1.43322 17422 ft 332 kts 327°
2026-05-07 11:04 52.84221 -1.45192 17035 ft 330 kts 327°
2026-05-07 11:04 52.86169 -1.47177 16619 ft 328 kts 327°
2026-05-07 11:05 52.88111 -1.49162 16214 ft 327 kts 326°
2026-05-07 11:05 52.90039 -1.51140 15804 ft 326 kts 327°
2026-05-07 11:05 52.91901 -1.53053 15413 ft 325 kts 326°
2026-05-07 11:05 52.93822 -1.55035 15005 ft 325 kts 326°
2026-05-07 11:06 52.95736 -1.57012 14600 ft 324 kts 326°
2026-05-07 11:06 52.97649 -1.58990 14193 ft 324 kts 326°
2026-05-07 11:06 52.99559 -1.60967 13775 ft 323 kts 326°
2026-05-07 11:06 53.01284 -1.62751 13393 ft 322 kts 326°
2026-05-07 11:07 53.03183 -1.64711 12987 ft 320 kts 326°
2026-05-07 11:07 53.05034 -1.66735 12584 ft 316 kts 319°
2026-05-07 11:07 53.06567 -1.69257 12200 ft 312 kts 308°
2026-05-07 11:07 53.07967 -1.71993 11820 ft 310 kts 308°
2026-05-07 11:08 53.09345 -1.74666 11433 ft 308 kts 308°
2026-05-07 11:08 53.10736 -1.77354 11043 ft 306 kts 308°
2026-05-07 11:08 53.12109 -1.80013 10813 ft 299 kts 308°
2026-05-07 11:08 53.13451 -1.82617 10501 ft 295 kts 308°
2026-05-07 11:09 53.14787 -1.85214 10115 ft 295 kts 308°
2026-05-07 11:09 53.16114 -1.87794 9716 ft 294 kts 308°
2026-05-07 11:09 53.17433 -1.90367 9393 ft 289 kts 308°
2026-05-07 11:09 53.18717 -1.92904 9070 ft 285 kts 308°
2026-05-07 11:10 53.19982 -1.95430 8698 ft 282 kts 307°
2026-05-07 11:10 53.21236 -1.97924 8367 ft 278 kts 307°
2026-05-07 11:10 53.22466 -2.00325 8235 ft 267 kts 307°
2026-05-07 11:10 53.23652 -2.02630 8076 ft 258 kts 309°
2026-05-07 11:11 53.25075 -2.04403 7754 ft 259 kts 336°
2026-05-07 11:11 53.26852 -2.04810 7405 ft 262 kts
2026-05-07 11:11 53.28628 -2.04135 7050 ft 262 kts 14°
2026-05-07 11:11 53.30371 -2.03275 6678 ft 261 kts 15°
2026-05-07 11:12 53.32102 -2.02384 6304 ft 259 kts 15°
2026-05-07 11:12 53.33818 -2.01500 5935 ft 257 kts 15°
2026-05-07 11:12 53.35523 -2.00626 5521 ft 256 kts 15°
2026-05-07 11:12 53.37229 -1.99752 5117 ft 256 kts 15°
2026-05-07 11:13 53.38896 -1.98907 4776 ft 246 kts 15°
2026-05-07 11:13 53.40525 -1.98080 4293 ft 243 kts 15°
2026-05-07 11:13 53.42149 -1.97268 3936 ft 243 kts 15°
2026-05-07 11:13 53.43767 -1.96470 3592 ft 242 kts 15°
2026-05-07 11:14 53.44830 -1.95954 3470 ft 237 kts 15°
2026-05-07 11:14 53.46410 -1.95424 3318 ft 226 kts 355°
2026-05-07 11:14 53.47814 -1.96238 3199 ft 209 kts 315°
2026-05-07 11:14 53.48507 -1.98208 3088 ft 191 kts 275°
2026-05-07 11:15 53.48349 -2.00315 2992 ft 180 kts 240°
2026-05-07 11:15 53.47616 -2.01981 3001 ft 178 kts 228°
2026-05-07 11:15 53.46860 -2.03575 2992 ft 170 kts 228°
2026-05-07 11:15 53.46150 -2.05069 3013 ft 160 kts 228°
2026-05-07 11:16 53.45466 -2.06499 2998 ft 156 kts 228°
2026-05-07 11:16 53.44794 -2.07904 2995 ft 152 kts 227°
2026-05-07 11:16 53.44131 -2.09288 2991 ft 152 kts 228°
2026-05-07 11:16 53.43464 -2.10678 2975 ft 154 kts 227°
2026-05-07 11:17 53.42778 -2.12107 2605 ft 159 kts 227°
2026-05-07 11:17 53.42074 -2.13572 2204 ft 163 kts 227°
2026-05-07 11:17 53.41378 -2.15025 1976 ft 158 kts 227°
2026-05-07 11:17 53.40694 -2.16449 1774 ft 156 kts 226°
2026-05-07 11:18 53.40018 -2.17855 1559 ft 153 kts 226°
2026-05-07 11:18 53.39367 -2.19210 1357 ft 144 kts 227°
2026-05-07 11:18 53.38777 -2.20439 1153 ft 128 kts 226°
2026-05-07 11:18 53.38226 -2.21583 972 ft 124 kts 225°
2026-05-07 11:19 53.37677 -2.22709 784 ft 125 kts 228°
2026-05-07 11:19 53.37132 -2.23848 631 ft 125 kts 227°
2026-05-07 11:19 53.36588 -2.24976 441 ft 124 kts 227°
2026-05-07 11:19 53.36048 -2.26109 282 ft 124 kts 228°
2026-05-07 11:20 53.35573 -2.27085 263 ft 86 kts 231°
2026-05-07 11:20 53.35307 -2.27640 255 ft 40 kts 235°
2026-05-07 11:20 53.35248 -2.27946 245 ft 17 kts 266°
2026-05-07 11:20 53.35235 -2.28111 237 ft 9 kts 261°
2026-05-07 11:21 53.35244 -2.28213 237 ft 9 kts 312°
2026-05-07 11:21 53.35283 -2.28211 239 ft 5 kts 18°
2026-05-07 11:21 53.35285 -2.28210 239 ft 0 kts 18°
2026-05-07 11:22 53.35288 -2.28204 239 ft 2 kts 43°
2026-05-07 11:22 53.35314 -2.28155 238 ft 9 kts 47°
2026-05-07 11:22 53.35367 -2.28066 241 ft 12 kts 44°
2026-05-07 11:22 53.35434 -2.27959 244 ft 14 kts 44°
2026-05-07 11:23 53.35496 -2.27861 247 ft 10 kts 43°
2026-05-07 11:23 53.35511 -2.27838 247 ft 2 kts 42°
2026-05-07 11:23 53.35529 -2.27827 248 ft 1 kts 320°
2026-05-07 11:23 53.35533 -2.27890 247 ft 11 kts 297°
2026-05-07 11:24 53.35597 -2.27900 248 ft 6 kts
2026-05-07 11:24 53.35644 -2.27892 247 ft 8 kts
2026-05-07 11:24 53.35712 -2.27881 247 ft 11 kts
2026-05-07 11:24 53.35800 -2.27865 247 ft 13 kts
2026-05-07 11:25 53.35878 -2.27853 247 ft 11 kts
2026-05-07 11:25 53.35967 -2.27866 247 ft 14 kts 331°
2026-05-07 11:25 53.36066 -2.27885 247 ft 16 kts 359°
2026-05-07 11:25 53.36159 -2.28004 247 ft 18 kts 314°
2026-05-07 11:26 53.36246 -2.28151 247 ft 16 kts 315°
2026-05-07 11:26 53.36309 -2.28259 247 ft 11 kts 313°
2026-05-07 11:26 53.36327 -2.28291 247 ft 3 kts 313°
2026-05-07 11:26 53.36351 -2.28329 237 ft 8 kts 317°
2026-05-07 11:27 53.36394 -2.28408 248 ft 2 kts 304°
2026-05-07 11:27 53.36401 -2.28425 247 ft 0 kts 307°
2026-05-07 11:27 53.36406 -2.28430 247 ft 1 kts 322°
2026-05-07 11:27 53.36419 -2.28476 247 ft 9 kts 298°
2026-05-07 11:28 53.36474 -2.28580 247 ft 13 kts 315°
2026-05-07 11:28 53.36541 -2.28692 247 ft 14 kts 314°
2026-05-07 11:28 53.36612 -2.28785 247 ft 12 kts 356°
2026-05-07 11:28 53.36670 -2.28716 247 ft 7 kts 44°
2026-05-07 11:29 53.36681 -2.28694 247 ft 2 kts 63°
2026-05-07 11:29 53.36668 -2.28660 247 ft 4 kts 139°
2026-05-07 11:29 53.36649 -2.28629 247 ft 2 kts 134°
2026-05-07 11:29 53.36641 -2.28616 247 ft 0 kts 134°